Overview Statistics Trail Chart Weather Telemetry Raw packets
 

This is the latest recevied weather packets stored in our database for station/object SQ5JP-4. If no packets are shown the sender has not sent any weather packets the latest 10 day(s).

<< 27 28 29 30 31 32 33 >>
Time Temp. Humidity Pressure Rain* Wind** Luminosity Snow
1787910523 22.22° C 96% 1004.5 hPa - - - -
1787909623 22.22° C 97% 1004.7 hPa - - - -
1787908723 22.22° C 100% 1004.6 hPa - - - -
1787907823 20.56° C 100% 1004.8 hPa - - - -
1787906922 21.11° C 100% 1004.8 hPa - - - -
1787906022 20.56° C 100% 1005 hPa - - - -
1787905122 18.89° C 100% 1005.1 hPa - - - -
1787904222 18.89° C 100% 1005.2 hPa - - - -
1787903322 18.89° C 100% 1005.1 hPa - - - -
1787902422 19.44° C 100% 1005.3 hPa - - - -
1787900625 17.78° C 100% 1005.4 hPa - - - -
1787899725 16.67° C 100% 1005.3 hPa - - - -
1787898825 16.11° C 100% 1005.3 hPa - - - -
1787897925 15° C 100% 1005.3 hPa - - - -
1787897025 14.44° C 100% 1005.3 hPa - - - -
1787896124 13.33° C 100% 1005.2 hPa - - - -
1787895224 12.78° C 100% 1005 hPa - - - -
1787894324 12.22° C 100% 1004.9 hPa - - - -
1787893424 11.67° C 100% 1004.8 hPa - - - -
1787892524 11.11° C 100% 1004.8 hPa - - - -
1787891624 10.56° C 100% 1004.6 hPa - - - -
1787890723 10.56° C 100% 1004.7 hPa - - - -
1787889823 10° C 100% 1004.7 hPa - - - -
1787888923 10° C 100% 1004.6 hPa - - - -
1787888023 10° C 100% 1004.6 hPa - - - -

* Rain since midnight (hover to see other rain measurements)
** Current wind speed in m/s (hover to see current wind gust speed)